Weather History for Orange, MA

Change the Weather History Date:

Friday, March 15, 2013

  Actual Average Record
Temperature  
Mean Temperature 27 °F -  
Max Temperature 37 °F 37 °F 57 °F (2009)
Min Temperature 17 °F 19 °F 17 °F (2013)
Degree Days  
Heating Degree Days 38    
Moisture  
Dew Point 17 °F    
Average Humidity 63    
Maximum Humidity 93    
Minimum Humidity 27    
Precipitation  
Precipitation 0.00 in - - ()
Sea Level Pressure  
Sea Level Pressure 29.74 in    
Wind  
Wind Speed 8 mph (WSW)    
Max Wind Speed 14 mph    
Max Gust Speed 25 mph    
Visibility 8 miles    
Events Snow    
Averages and records for this station are not official NWS values.
T = Trace of Precipitation, MM = Missing Value Source: NWS Daily Summary

Daily Weather History Graph

Daily Weather History Graph

Search for Another Location

Airport:

Trip Planner

Search our weather history database for the weather conditions in past years. The results will help you decide how hot, cold, wet, or windy it might be!

Date:

Astronomy

Mar. 15, 2013 Rise Set
Actual Time 7:00 AM EDT 6:55 PM EDT
Civil Twilight 6:32 AM EDT 7:23 PM EDT
Nautical Twilight 5:59 AM EDT 7:56 PM EDT
Astronomical Twilight 5:26 AM EDT 8:30 PM EDT
Moon 8:43 AM EDT (3/15) 11:13 PM EDT (3/15)
Length of Visible Light 12h 51m
Length of Day
11h 55m
Waxing Crescent, 15% of the Moon is Illuminated
Mar 15
Waxing Crescent
Mar 19
First Quarter
Mar 27
Full
Apr 3
Last Quarter
Apr 10
New

Hourly Weather History & Observations

Time (EDT) Temp. Windchill Dew Point Humidity Pressure Visibility Wind Dir Wind Speed Gust Speed Precip Events Conditions
12:52 AM 21.0 °F 11.4 °F 10.9 °F 65% 29.86 in 10.0 mi NNW 8.1 mph - N/A   Mostly Cloudy
1:52 AM 21.9 °F 11.7 °F 8.1 °F 55% 29.86 in 10.0 mi NW 9.2 mph - N/A   Overcast
2:52 AM 21.9 °F 9.8 °F 6.1 °F 51% 29.87 in 10.0 mi NNW 12.7 mph 19.6 mph N/A   Overcast
3:52 AM 19.9 °F 7.3 °F 8.1 °F 60% 29.86 in 10.0 mi NNW 12.7 mph - N/A   Clear
4:52 AM 18.0 °F 7.7 °F 8.1 °F 65% 29.86 in 10.0 mi NNW 8.1 mph - N/A   Clear
5:52 AM 17.1 °F 8.7 °F 7.0 °F 65% 29.87 in 10.0 mi NNW 5.8 mph - N/A   Clear
6:52 AM 17.1 °F - 7.0 °F 65% 29.88 in 10.0 mi Calm Calm - N/A   Clear
7:52 AM 18.0 °F - 8.1 °F 65% 29.88 in 10.0 mi Calm Calm - N/A   Clear
8:52 AM 19.9 °F - 7.0 °F 57% 29.88 in 10.0 mi Calm Calm - N/A   Clear
9:52 AM 24.1 °F - 6.1 °F 46% 29.87 in 10.0 mi Calm Calm - N/A   Clear
10:52 AM 28.0 °F - 1.9 °F 33% 29.84 in 10.0 mi Calm Calm - N/A   Clear
11:52 AM 32.0 °F 23.0 °F 1.0 °F 27% 29.81 in 10.0 mi WSW 11.5 mph 16.1 mph N/A   Clear
12:52 PM 33.1 °F 25.5 °F 3.0 °F 28% 29.77 in 10.0 mi SW 9.2 mph - N/A   Overcast
1:52 PM 36.0 °F 29.6 °F 10.0 °F 34% 29.72 in 10.0 mi West 8.1 mph 17.3 mph N/A   Overcast
2:52 PM 37.0 °F 28.9 °F 12.9 °F 37% 29.69 in 10.0 mi SW 12.7 mph - N/A   Overcast
3:52 PM 37.0 °F 29.3 °F 15.1 °F 41% 29.67 in 10.0 mi SW 11.5 mph 25.3 mph N/A   Overcast
4:52 PM 37.9 °F 31.5 °F 19.9 °F 48% 29.65 in 10.0 mi SW 9.2 mph - N/A   Overcast
5:52 PM 35.1 °F 28.6 °F 25.0 °F 67% 29.66 in 9.0 mi SW 8.1 mph - N/A   Overcast
6:52 PM 35.1 °F 30.1 °F 25.0 °F 67% 29.66 in 10.0 mi SW 5.8 mph - 0.00 in   Overcast
7:52 PM 33.1 °F 25.5 °F 28.0 °F 82% 29.67 in 5.0 mi SW 9.2 mph - 0.00 in Snow Light Snow
8:05 PM 32.0 °F 24.2 °F 28.4 °F 87% 29.64 in 2.5 mi SW 9.2 mph - 0.00 in Snow Light Snow
8:12 PM 32.0 °F 23.6 °F 28.4 °F 87% 29.64 in 8.0 mi SSW 10.4 mph - 0.00 in Snow Light Snow
8:52 PM 33.1 °F 23.4 °F 28.0 °F 82% 29.67 in 3.0 mi SW 13.8 mph 19.6 mph 0.00 in Snow Light Snow
8:54 PM 33.8 °F 26.4 °F 28.4 °F 81% 29.65 in 1.8 mi WSW 9.2 mph 19.6 mph 0.00 in Snow Light Snow
9:00 PM 32.0 °F 24.2 °F 28.4 °F 87% 29.65 in 1.2 mi SW 9.2 mph 19.6 mph 0.00 in Snow Light Snow
9:20 PM 32.0 °F 25.6 °F 28.4 °F 87% 29.65 in 2.0 mi West 6.9 mph - 0.00 in Snow Light Snow
9:28 PM 32.0 °F 26.4 °F 28.4 °F 87% 29.65 in 9.0 mi West 5.8 mph - 0.00 in   Mostly Cloudy
9:38 PM 30.2 °F 24.3 °F 28.4 °F 93% 29.65 in 10.0 mi WSW 5.8 mph - 0.00 in   Partly Cloudy
9:52 PM 30.0 °F 25.2 °F 28.0 °F 92% 29.68 in 10.0 mi WSW 4.6 mph - 0.00 in   Clear
10:52 PM 33.1 °F 25.5 °F 21.0 °F 61% 29.68 in 10.0 mi West 9.2 mph 20.7 mph N/A   Scattered Clouds
11:52 PM 33.1 °F 26.1 °F 21.0 °F 61% 29.70 in 10.0 mi WNW 8.1 mph - N/A   Overcast